Hourly Data Report for July 17, 2020

OTTAWA INTL A
ONTARIO
Current Station Operator: NAVCAN

45°19'00.000" N
75°40'00.000" W
114.90 m
6106001
71628
YOW

Download Data

Hourly Data (July 2020)
Hourly Data Report for July 17, 2020
TIME Temp Definition
°C
Dew Point Definition
°C
Rel Hum Definition
%
Wind Dir Definition
10's deg

Wind Spd Definition
km/h
Visibility Definition
km
Stn Press Definition
kPa
Hmdx Definition


Wind Chill Definition


Weather Definition


00:00 21.5 18.6 83 18 12 24.1 100.15 28   LegendNANA
01:00 21.2 18.8 86 16 10 24.1 100.07 28   Cloudy
02:00 21.2 18.8 86 16 17 24.1 99.99 28   LegendNANA
03:00 20.8 18.9 88 18 16 16.1 99.89 27   Rain Showers
04:00 20.4 19.3 94 18 13 16.1 99.89 27   Thunderstorms
05:00 20.5 19.6 95 36 3 12.9 99.91 28   LegendNANA
06:00 20.1 19.8 98 13 4 16.1 99.92 28   LegendNANA
07:00 20.6 20.3 98 26 4 8.1 99.97 28   Rain,Fog
08:00 21.6 20.7 95 28 16 24.1 100.04 30   LegendNANA
09:00 23.0 20.4 85 28 28 24.1 100.10 31   LegendNANA
10:00 24.1 19.4 75 28 25 24.1 100.17 31   Mostly Cloudy
11:00 25.4 19.1 68 29 14 24.1 100.23 32   LegendNANA
12:00 27.0 18.4 59 30 17 24.1 100.21 33   LegendNANA
13:00 29.2 16.8 46 25 14 24.1 100.22 34   Clear
14:00 29.8 14.8 40 31 16 24.1 100.20 34   LegendNANA
15:00 31.0 14.8 37 29 13 24.1 100.17 35   LegendNANA
16:00 31.2 15.4 38 27 19 24.1 100.12 35   Clear
17:00 31.5 13.9 34 26 21 24.1 100.07 35   LegendNANA
18:00 29.4 15.9 43 20 15 24.1 100.06 34   LegendNANA
19:00 27.9 20.0 61 19 18 24.1 100.08 35   Mostly Cloudy
20:00 26.0 20.1 70 20 12 24.1 100.11 34   LegendNANA
21:00 24.4 20.0 76 20 9 24.1 100.17 32   LegendNANA
22:00 22.2 19.6 85 18 12 24.1 100.20 29   Clear
23:00 21.6 16.7 73 21 9 24.1 100.23 27   LegendNANA

Notes on Data Quality.

Legend

  • E = Estimated
  • M = Missing
  • NA = Not Available*
  • [empty] = Indicates an unobserved value
Date modified: